Belmar-Farmingdale, NJ

5:15 PM EST on December 07, 2019 (GMT -0500)
Allaire

Weather History for KBLM - October, 2019

Change the Weather History Date:

Wednesday, October 16, 2019

  Actual Average Record
Temperature  
Mean Temperature 59 °F -  
Max Temperature 66 °F 60 °F 82 °F (2008)
Min Temperature 52 °F 45 °F 35 °F (2006)
Degree Days  
Heating Degree Days 6    
Growing Degree Days 9 (Base 50)    
Moisture  
Dew Point 58 °F    
Average Humidity 90    
Maximum Humidity 100    
Minimum Humidity 77    
Precipitation  
Precipitation 0.52 in - - ()
Sea Level Pressure  
Sea Level Pressure 29.65 in    
Wind  
Wind Speed 11 mph ()    
Max Wind Speed 34 mph    
Max Gust Speed 51 mph    
Visibility 8.9 miles    
Events Rain    
Averages and records for this station are not official NWS values.
T = Trace of Precipitation, MM = Missing Value Source: Averaged Metar Reports

Daily Weather History Graph

Daily Weather History Graph

Search for Another Location

Airport or City:

Astronomy

Oct. 16, 2019 Rise Set
Actual Time 7:07 AM EDT 6:15 PM EDT
Civil Twilight 6:40 AM EDT 6:42 PM EDT
Nautical Twilight 6:09 AM EDT 7:14 PM EDT
Astronomical Twilight 5:37 AM EDT 7:45 PM EDT
Moon 8:07 PM EDT (10/16) 9:36 AM EDT (10/16)
Length of Visible Light 12h 02m
Length of Day
11h 07m
Waning Gibbous, 93% of the Moon is Illuminated
Oct 16
Waning Gibbous
Oct 21
Last Quarter
Oct 27
New
Nov 4
First Quarter
Nov 12
Full

Hourly Weather History & Observations

Time (EDT) Temp. Dew Point Humidity Pressure Visibility Wind Dir Wind Speed Gust Speed Precip Events Conditions
12:56 AM 52.0 °F 48.0 °F 86% 30.08 in 10.0 mi ESE 5.8 mph - N/A   Clear
1:56 AM 53.1 °F 50.0 °F 89% 30.07 in 10.0 mi SE 5.8 mph - N/A   Clear
2:56 AM 52.0 °F 48.9 °F 89% 30.05 in 10.0 mi ESE 5.8 mph - N/A   Clear
3:56 AM 54.0 °F 51.1 °F 90% 30.02 in 10.0 mi ESE 5.8 mph - N/A   Clear
4:56 AM 55.9 °F 54.0 °F 93% 30.01 in 10.0 mi ESE 8.1 mph - N/A   Clear
5:56 AM 57.0 °F 55.0 °F 93% 29.99 in 10.0 mi ESE 5.8 mph - N/A   Clear
6:54 AM 59.0 °F 55.4 °F 88% 29.97 in 10.0 mi ESE 8.1 mph - N/A   Mostly Cloudy
6:56 AM 59.0 °F 55.9 °F 90% 29.98 in 10.0 mi ESE 9.2 mph - N/A   Mostly Cloudy
7:11 AM 59.0 °F 55.4 °F 88% 29.97 in 10.0 mi ESE 10.4 mph - N/A   Scattered Clouds
7:56 AM 61.0 °F 57.0 °F 87% 29.95 in 10.0 mi ESE 11.5 mph - N/A   Scattered Clouds
8:56 AM 63.0 °F 59.0 °F 87% 29.93 in 10.0 mi ESE 9.2 mph - N/A   Partly Cloudy
9:26 AM 62.6 °F 59.0 °F 88% 29.93 in 10.0 mi SE 9.2 mph 18.4 mph N/A   Mostly Cloudy
9:35 AM 64.4 °F 60.8 °F 88% 29.92 in 10.0 mi SE 12.7 mph - N/A   Overcast
9:49 AM 64.4 °F 60.8 °F 88% 29.91 in 10.0 mi SE 9.2 mph - N/A   Overcast
9:56 AM 64.0 °F 60.1 °F 87% 29.90 in 10.0 mi ESE 13.8 mph - N/A   Overcast
10:05 AM 64.4 °F 60.8 °F 88% 29.89 in 10.0 mi SE 12.7 mph - N/A   Overcast
10:56 AM 66.0 °F 61.0 °F 84% 29.86 in 10.0 mi SE 11.5 mph 19.6 mph N/A   Overcast
11:07 AM 66.2 °F 60.8 °F 83% 29.85 in 10.0 mi SE 11.5 mph 19.6 mph N/A   Mostly Cloudy
11:29 AM 64.4 °F 60.8 °F 88% 29.84 in 10.0 mi SE 11.5 mph - N/A   Mostly Cloudy
11:41 AM 64.4 °F 60.8 °F 88% 29.83 in 10.0 mi ESE 13.8 mph 18.4 mph N/A   Mostly Cloudy
11:56 AM 66.0 °F 61.0 °F 84% 29.82 in 10.0 mi SE 15.0 mph 19.6 mph N/A   Mostly Cloudy
12:32 PM 66.2 °F 60.8 °F 83% 29.79 in 10.0 mi ESE 13.8 mph 21.9 mph N/A   Overcast
12:40 PM 66.2 °F 60.8 °F 83% 29.78 in 10.0 mi ESE 11.5 mph 21.9 mph N/A   Overcast
12:56 PM 66.9 °F 62.1 °F 84% 29.76 in 10.0 mi SE 13.8 mph 20.7 mph N/A   Overcast
1:13 PM 66.2 °F 62.6 °F 88% 29.74 in 10.0 mi SE 16.1 mph 26.5 mph N/A   Mostly Cloudy
1:43 PM 66.2 °F 62.6 °F 88% 29.71 in 10.0 mi ESE 19.6 mph 27.6 mph 0.00 in Rain Light Rain
1:56 PM 64.9 °F 62.1 °F 90% 29.70 in 10.0 mi ESE 17.3 mph 25.3 mph 0.00 in Rain Light Rain
2:56 PM 64.9 °F 62.1 °F 90% 29.64 in 10.0 mi East 20.7 mph 29.9 mph 0.00 in Rain Light Rain
3:56 PM 64.9 °F 62.1 °F 90% 29.58 in 10.0 mi ESE 16.1 mph 23.0 mph 0.00 in Rain Light Rain
4:56 PM 64.0 °F 62.1 °F 93% 29.52 in 7.0 mi ESE 16.1 mph 23.0 mph 0.00 in Rain Light Rain
5:56 PM 61.0 °F 59.0 °F 93% 29.45 in 4.0 mi ESE 12.7 mph 20.7 mph 0.21 in Rain Rain
6:14 PM 60.8 °F 60.8 °F 100% 29.42 in 4.0 mi ESE 18.4 mph 27.6 mph 0.07 in Rain Rain
6:20 PM 60.8 °F 60.8 °F 100% 29.40 in 6.0 mi ESE 18.4 mph 28.8 mph 0.08 in Rain Rain
6:56 PM 61.0 °F 60.1 °F 97% 29.35 in 6.0 mi SE 11.5 mph 21.9 mph 0.14 in Rain Rain
7:47 PM 62.6 °F 60.8 °F 94% 29.26 in 3.0 mi ESE 19.6 mph 28.8 mph 0.08 in Rain Rain
7:56 PM 62.1 °F 61.0 °F 96% 29.25 in 3.0 mi ESE 17.3 mph 26.5 mph 0.09 in Rain Rain
8:27 PM 62.6 °F 62.6 °F 100% 29.21 in 6.0 mi ESE 17.3 mph 29.9 mph 0.02 in Rain Light Rain
8:39 PM 62.6 °F 62.6 °F 100% 29.22 in 4.0 mi SW 9.2 mph 20.7 mph 0.05 in Rain Rain
8:56 PM 63.0 °F 62.1 °F 97% 29.21 in 7.0 mi SW 8.1 mph - 0.07 in Rain Light Rain
9:02 PM 62.6 °F 62.6 °F 100% 29.20 in 10.0 mi SW 9.2 mph - 0.00 in   Overcast
9:11 PM 62.6 °F 60.8 °F 94% 29.20 in 10.0 mi WSW 10.4 mph - 0.00 in   Overcast
9:17 PM 62.6 °F 60.8 °F 94% 29.20 in 10.0 mi WSW 16.1 mph 20.7 mph 0.00 in   Overcast
9:56 PM 57.0 °F 55.0 °F 93% 29.20 in 9.0 mi West 34.5 mph 50.6 mph 0.01 in Rain Light Rain
10:56 PM 53.1 °F 48.9 °F 86% 29.26 in 10.0 mi West 20.7 mph 34.5 mph 0.00 in   Overcast
11:03 PM 53.6 °F 48.2 °F 82% 29.25 in 10.0 mi West 29.9 mph 36.8 mph N/A   Overcast
11:14 PM 53.6 °F 48.2 °F 82% 29.27 in 10.0 mi West 21.9 mph 31.1 mph N/A   Overcast
11:56 PM 53.1 °F 46.0 °F 77% 29.27 in 10.0 mi West 25.3 mph 33.4 mph N/A   Overcast